"Sample Date","Sample Time","Sensor Name","Sample Value","Units","Flow Rate","Sample Interval","Sample Volume","Laser Status","Number Channels","Micron Size 0","Counts/Channel 0","Micron Size 1","Counts/Channel 1","Micron Size 2","Counts/Channel 2","Micron Size 3","Counts/Channel 3","Micron Size 4","Counts/Channel 4","Micron Size 5","Counts/Channel 5","Micron Size 6","Counts/Channel 6","Micron Size 7","Counts/Channel 7","Micron Size 8","Counts/Channel 8","Micron Size 9","Counts/Channel 9","Micron Size 10","Counts/Channel 10","Micron Size 11","Counts/Channel 11","Micron Size 12","Counts/Channel 12","Micron Size 13","Counts/Channel 13","Micron Size 14","Counts/Channel 14","Micron Size 15","Counts/Channel 15","Micron Size 16","Counts/Channel 16","Micron Size 17","Counts/Channel 17","Micron Size 18","Counts/Channel 18","Micron Size 19","Counts/Channel 19","Micron Size 20","Counts/Channel 20","Micron Size 21","Counts/Channel 21","Micron Size 22","Counts/Channel 22","Micron Size 23","Counts/Channel 23","Micron Size 24","Counts/Channel 24","Micron Size 25","Counts/Channel 25","Micron Size 26","Counts/Channel 26","Micron Size 27","Counts/Channel 27","Micron Size 28","Counts/Channel 28","Micron Size 29","Counts/Channel 29","Micron Size 30","Counts/Channel 30","Micron Size 31","Counts/Channel 31"
"07/04/06","17:00:02","AMMA06",58585.000,"cc",28332.447,6.00,2833.245,1,6,0.100,28970.000,0.200,25739.000,0.300,2707.000,0.500,705.000,1.000,464.000,5.000,0
"07/04/06","17:00:08","AMMA06",55476.000,"cc",28347.361,6.00,2834.736,1,6,0.100,26704.000,0.200,25327.000,0.300,2477.000,0.500,600.000,1.000,368.000,5.000,0
"07/04/06","17:00:14","AMMA06",58102.000,"cc",28292.781,6.00,2829.278,1,6,0.100,28461.000,0.200,25938.000,0.300,2639.000,0.500,674.000,1.000,390.000,5.000,0
"07/04/06","17:00:20","AMMA06",56750.000,"cc",28296.361,6.00,2829.636,1,6,0.100,27219.000,0.200,25986.000,0.300,2505.000,0.500,658.000,1.000,382.000,5.000,0
"07/04/06","17:00:26","AMMA06",57881.000,"cc",28289.344,6.00,2828.935,1,6,0.100,28573.000,0.200,25851.000,0.300,2491.000,0.500,612.000,1.000,354.000,5.000,0
"07/04/06","17:00:32","AMMA06",55823.000,"cc",28260.488,6.00,2826.049,1,6,0.100,26742.000,0.200,25384.000,0.300,2661.000,0.500,672.000,1.000,364.000,5.000,0
"07/04/06","17:00:38","AMMA06",56456.000,"cc",28339.590,6.00,2833.959,1,6,0.100,27113.000,0.200,25693.000,0.300,2601.000,0.500,648.000,1.000,401.000,5.000,0
"07/04/06","17:00:44","AMMA06",56256.000,"cc",28331.773,6.00,2833.178,1,6,0.100,27076.000,0.200,25678.000,0.300,2578.000,0.500,580.000,1.000,343.000,5.000,1.000
"07/04/06","17:00:50","AMMA06",55316.000,"cc",28347.777,6.00,2834.778,1,6,0.100,26368.000,0.200,25481.000,0.300,2471.000,0.500,619.000,1.000,376.000,5.000,1.000
"07/04/06","17:00:56","AMMA06",55992.000,"cc",28290.551,6.00,2829.055,1,6,0.100,26596.000,0.200,25891.000,0.300,2596.000,0.500,570.000,1.000,339.000,5.000,0
"07/04/06","17:01:02","AMMA06",55906.000,"cc",28312.838,6.00,2831.284,1,6,0.100,26535.000,0.200,25504.000,0.300,2732.000,0.500,725.000,1.000,410.000,5.000,0
"07/04/06","17:01:08","AMMA06",55503.000,"cc",28315.543,6.00,2831.554,1,6,0.100,26613.000,0.200,25406.000,0.300,2491.000,0.500,607.000,1.000,386.000,5.000,0
"07/04/06","17:01:14","AMMA06",55219.000,"cc",28384.703,6.00,2838.471,1,6,0.100,26350.000,0.200,25394.000,0.300,2488.000,0.500,610.000,1.000,377.000,5.000,0
"07/04/06","17:01:20","AMMA06",54827.000,"cc",28291.850,6.00,2829.185,1,6,0.100,26312.000,0.200,25122.000,0.300,2433.000,0.500,568.000,1.000,392.000,5.000,0
"07/04/06","17:01:26","AMMA06",55861.000,"cc",28335.156,6.00,2833.516,1,6,0.100,26984.000,0.200,25241.000,0.300,2640.000,0.500,636.000,1.000,360.000,5.000,0
"07/04/06","17:01:32","AMMA06",57504.000,"cc",28321.930,6.00,2832.193,1,6,0.100,27882.000,0.200,25739.000,0.300,2716.000,0.500,744.000,1.000,423.000,5.000,0
"07/04/06","17:01:38","AMMA06",58116.000,"cc",28317.426,6.00,2831.743,1,6,0.100,28451.000,0.200,25707.000,0.300,2750.000,0.500,800.000,1.000,408.000,5.000,0
"07/04/06","17:01:44","AMMA06",58152.000,"cc",28335.701,6.00,2833.570,1,6,0.100,28214.000,0.200,25910.000,0.300,2862.000,0.500,734.000,1.000,432.000,5.000,0
"07/04/06","17:01:50","AMMA06",56717.000,"cc",28324.604,6.00,2832.460,1,6,0.100,27120.000,0.200,25832.000,0.300,2644.000,0.500,695.000,1.000,426.000,5.000,0
"07/04/06","17:01:56","AMMA06",56898.000,"cc",28342.754,6.00,2834.276,1,6,0.100,27340.000,0.200,25856.000,0.300,2563.000,0.500,715.000,1.000,424.000,5.000,0
"07/04/06","17:02:02","AMMA06",56067.000,"cc",28272.197,6.00,2827.220,1,6,0.100,26931.000,0.200,25624.000,0.300,2530.000,0.500,607.000,1.000,374.000,5.000,1.000
"07/04/06","17:02:08","AMMA06",57107.000,"cc",28296.795,6.00,2829.680,1,6,0.100,27441.000,0.200,25736.000,0.300,2801.000,0.500,697.000,1.000,431.000,5.000,1.000
"07/04/06","17:02:14","AMMA06",58680.000,"cc",28376.078,6.00,2837.608,1,6,0.100,28357.000,0.200,25985.000,0.300,2947.000,0.500,880.000,1.000,511.000,5.000,0
"07/04/06","17:02:20","AMMA06",58697.000,"cc",28326.225,6.00,2832.623,1,6,0.100,28363.000,0.200,26071.000,0.300,2949.000,0.500,841.000,1.000,473.000,5.000,0
"07/04/06","17:02:26","AMMA06",59777.000,"cc",28316.822,6.00,2831.682,1,6,0.100,29587.000,0.200,26123.000,0.300,2833.000,0.500,788.000,1.000,445.000,5.000,1.000
"07/04/06","17:02:32","AMMA06",61656.000,"cc",28295.631,6.00,2829.563,1,6,0.100,31005.000,0.200,26375.000,0.300,2936.000,0.500,845.000,1.000,495.000,5.000,0
"07/04/06","17:02:38","AMMA06",59484.000,"cc",28342.441,6.00,2834.244,1,6,0.100,29416.000,0.200,26062.000,0.300,2860.000,0.500,721.000,1.000,424.000,5.000,1.000
"07/04/06","17:02:44","AMMA06",57228.000,"cc",28305.770,6.00,2830.577,1,6,0.100,27779.000,0.200,25830.000,0.300,2630.000,0.500,622.000,1.000,367.000,5.000,0
"07/04/06","17:02:50","AMMA06",57700.000,"cc",28261.863,6.00,2826.187,1,6,0.100,27721.000,0.200,26031.000,0.300,2802.000,0.500,722.000,1.000,424.000,5.000,0
"07/04/06","17:02:56","AMMA06",56953.000,"cc",28345.729,6.00,2834.573,1,6,0.100,27069.000,0.200,26070.000,0.300,2663.000,0.500,727.000,1.000,423.000,5.000,1.000
"07/04/06","17:03:02","AMMA06",60521.000,"cc",28319.854,6.00,2831.986,1,6,0.100,30261.000,0.200,26327.000,0.300,2753.000,0.500,768.000,1.000,412.000,5.000,0
"07/04/06","17:03:08","AMMA06",58411.000,"cc",28309.617,6.00,2830.962,1,6,0.100,28555.000,0.200,25953.000,0.300,2775.000,0.500,695.000,1.000,433.000,5.000,0
"07/04/06","17:03:14","AMMA06",63077.000,"cc",28324.842,6.00,2832.484,1,6,0.100,31758.000,0.200,26856.000,0.300,3074.000,0.500,872.000,1.000,517.000,5.000,0
"07/04/06","17:03:20","AMMA06",63977.000,"cc",28294.727,6.00,2829.473,1,6,0.100,32524.000,0.200,27092.000,0.300,3016.000,0.500,844.000,1.000,501.000,5.000,0
"07/04/06","17:03:26","AMMA06",60885.000,"cc",28315.799,6.00,2831.580,1,6,0.100,30439.000,0.200,26538.000,0.300,2777.000,0.500,724.000,1.000,407.000,5.000,0
"07/04/06","17:03:32","AMMA06",61509.000,"cc",28291.072,6.00,2829.107,1,6,0.100,30885.000,0.200,26649.000,0.300,2868.000,0.500,710.000,1.000,397.000,5.000,0
"07/04/06","17:03:38","AMMA06",60735.000,"cc",28317.084,6.00,2831.709,1,6,0.100,30240.000,0.200,26719.000,0.300,2732.000,0.500,643.000,1.000,401.000,5.000,0
"07/04/06","17:03:44","AMMA06",61242.000,"cc",28311.719,6.00,2831.172,1,6,0.100,30448.000,0.200,26858.000,0.300,2810.000,0.500,695.000,1.000,431.000,5.000,0
"07/04/06","17:03:50","AMMA06",62360.000,"cc",28344.291,6.00,2834.429,1,6,0.100,31324.000,0.200,26917.000,0.300,2916.000,0.500,766.000,1.000,437.000,5.000,0
"07/04/06","17:03:56","AMMA06",70048.000,"cc",28274.473,6.00,2827.448,1,6,0.100,37427.000,0.200,28345.000,0.300,3048.000,0.500,766.000,1.000,462.000,5.000,0
"07/04/06","17:04:02","AMMA06",61907.000,"cc",28353.707,6.00,2835.371,1,6,0.100,31186.000,0.200,26808.000,0.300,2813.000,0.500,685.000,1.000,415.000,5.000,0
"07/04/06","17:04:08","AMMA06",59007.000,"cc",28320.809,6.00,2832.081,1,6,0.100,28846.000,0.200,26387.000,0.300,2736.000,0.500,650.000,1.000,388.000,5.000,0
"07/04/06","17:04:14","AMMA06",61108.000,"cc",28282.027,6.00,2828.203,1,6,0.100,29959.000,0.200,26649.000,0.300,3158.000,0.500,873.000,1.000,469.000,5.000,0
"07/04/06","17:04:20","AMMA06",62916.000,"cc",28308.936,6.00,2830.894,1,6,0.100,31565.000,0.200,27248.000,0.300,2890.000,0.500,757.000,1.000,456.000,5.000,0
"07/04/06","17:04:26","AMMA06",62229.000,"cc",28340.270,6.00,2834.027,1,6,0.100,31240.000,0.200,26888.000,0.300,2903.000,0.500,745.000,1.000,453.000,5.000,0
"07/04/06","17:04:32","AMMA06",60657.000,"cc",28333.404,6.00,2833.341,1,6,0.100,30020.000,0.200,26702.000,0.300,2775.000,0.500,729.000,1.000,431.000,5.000,0
"07/04/06","17:04:38","AMMA06",60401.000,"cc",28345.131,6.00,2834.513,1,6,0.100,29431.000,0.200,26911.000,0.300,2897.000,0.500,740.000,1.000,422.000,5.000,0
"07/04/06","17:04:44","AMMA06",62683.000,"cc",28331.666,6.00,2833.167,1,6,0.100,31600.000,0.200,27193.000,0.300,2766.000,0.500,701.000,1.000,423.000,5.000,0
"07/04/06","17:04:50","AMMA06",60815.000,"cc",28319.625,6.00,2831.963,1,6,0.100,30181.000,0.200,26855.000,0.300,2707.000,0.500,672.000,1.000,400.000,5.000,0
"07/04/06","17:04:56","AMMA06",62256.000,"cc",28256.822,6.00,2825.682,1,6,0.100,31431.000,0.200,27086.000,0.300,2746.000,0.500,628.000,1.000,365.000,5.000,0
"07/04/06","17:05:02","AMMA06",60391.000,"cc",28300.229,6.00,2830.023,1,6,0.100,29511.000,0.200,26778.000,0.300,2888.000,0.500,750.000,1.000,464.000,5.000,0
"07/04/06","17:05:08","AMMA06",57702.000,"cc",28331.229,6.00,2833.123,1,6,0.100,27872.000,0.200,26202.000,0.300,2615.000,0.500,628.000,1.000,385.000,5.000,0
"07/04/06","17:05:14","AMMA06",60294.000,"cc",28372.846,6.00,2837.285,1,6,0.100,29644.000,0.200,26596.000,0.300,2879.000,0.500,704.000,1.000,471.000,5.000,0
"07/04/06","17:05:20","AMMA06",64470.000,"cc",28298.773,6.00,2829.877,1,6,0.100,32579.000,0.200,27441.000,0.300,3064.000,0.500,901.000,1.000,485.000,5.000,0
"07/04/06","17:05:26","AMMA06",71769.000,"cc",28331.568,6.00,2833.157,1,6,0.100,38800.000,0.200,28345.000,0.300,3213.000,0.500,906.000,1.000,505.000,5.000,0
"07/04/06","17:05:32","AMMA06",65553.000,"cc",28299.441,6.00,2829.944,1,6,0.100,33524.000,0.200,27258.000,0.300,3316.000,0.500,947.000,1.000,508.000,5.000,0
"07/04/06","17:05:38","AMMA06",60731.000,"cc",28328.959,6.00,2832.896,1,6,0.100,30180.000,0.200,26700.000,0.300,2772.000,0.500,647.000,1.000,432.000,5.000,0
"07/04/06","17:05:44","AMMA06",68737.000,"cc",28343.170,6.00,2834.317,1,6,0.100,35714.000,0.200,27874.000,0.300,3444.000,0.500,1116.000,1.000,589.000,5.000,0
"07/04/06","17:05:50","AMMA06",75669.000,"cc",28313.035,6.00,2831.304,1,6,0.100,41794.000,0.200,28746.000,0.300,3482.000,0.500,1072.000,1.000,574.000,5.000,1.000
"07/04/06","17:05:56","AMMA06",74565.000,"cc",28308.949,6.00,2830.895,1,6,0.100,41000.000,0.200,28689.000,0.300,3360.000,0.500,992.000,1.000,524.000,5.000,0
"07/04/06","17:06:02","AMMA06",64424.000,"cc",28321.275,6.00,2832.128,1,6,0.100,32610.000,0.200,26857.000,0.300,3307.000,0.500,1080.000,1.000,569.000,5.000,1.000
"07/04/06","17:06:08","AMMA06",64657.000,"cc",28325.059,6.00,2832.506,1,6,0.100,32421.000,0.200,26981.000,0.300,3444.000,0.500,1229.000,1.000,582.000,5.000,0
"07/04/06","17:06:14","AMMA06",70139.000,"cc",28297.137,6.00,2829.714,1,6,0.100,36428.000,0.200,27780.000,0.300,3849.000,0.500,1401.000,1.000,680.000,5.000,1.000
"07/04/06","17:06:20","AMMA06",65402.000,"cc",28332.045,6.00,2833.205,1,6,0.100,33813.000,0.200,26961.000,0.300,3147.000,0.500,971.000,1.000,510.000,5.000,0
"07/04/06","17:06:26","AMMA06",91389.000,"cc",28303.940,6.00,2830.394,1,6,0.100,52533.000,0.200,31719.000,0.300,4642.000,0.500,1704.000,1.000,790.000,5.000,1.000
"07/04/06","17:06:32","AMMA06",69873.000,"cc",28340.760,6.00,2834.076,1,6,0.100,37102.000,0.200,27779.000,0.300,3444.000,0.500,988.000,1.000,560.000,5.000,0
"07/04/06","17:06:38","AMMA06",63099.000,"cc",28282.313,6.00,2828.231,1,6,0.100,31898.000,0.200,26793.000,0.300,3028.000,0.500,878.000,1.000,502.000,5.000,0
"07/04/06","17:06:44","AMMA06",72287.000,"cc",28315.707,6.00,2831.571,1,6,0.100,37795.000,0.200,28430.000,0.300,3925.000,0.500,1425.000,1.000,712.000,5.000,0
"07/04/06","17:06:50","AMMA06",71325.000,"cc",28311.551,6.00,2831.155,1,6,0.100,38726.000,0.200,27680.000,0.300,3209.000,0.500,1117.000,1.000,593.000,5.000,0
"07/04/06","17:06:56","AMMA06",72848.000,"cc",28354.676,6.00,2835.468,1,6,0.100,39736.000,0.200,28338.000,0.300,3160.000,0.500,1062.000,1.000,552.000,5.000,0
"07/04/06","17:07:02","AMMA06",61670.000,"cc",28290.219,6.00,2829.022,1,6,0.100,31505.000,0.200,26203.000,0.300,2716.000,0.500,794.000,1.000,452.000,5.000,0
"07/04/06","17:07:08","AMMA06",59367.000,"cc",28324.510,6.00,2832.451,1,6,0.100,29425.000,0.200,26018.000,0.300,2775.000,0.500,735.000,1.000,414.000,5.000,0
"07/04/06","17:07:14","AMMA06",59595.000,"cc",28306.668,6.00,2830.667,1,6,0.100,29601.000,0.200,26053.000,0.300,2676.000,0.500,826.000,1.000,439.000,5.000,0
"07/04/06","17:07:20","AMMA06",61663.000,"cc",28316.949,6.00,2831.695,1,6,0.100,31335.000,0.200,26274.000,0.300,2802.000,0.500,797.000,1.000,455.000,5.000,0
"07/04/06","17:07:26","AMMA06",67652.000,"cc",28262.881,6.00,2826.288,1,6,0.100,35875.000,0.200,27596.000,0.300,2908.000,0.500,774.000,1.000,499.000,5.000,0
"07/04/06","17:07:32","AMMA06",58805.000,"cc",28306.426,6.00,2830.643,1,6,0.100,29635.000,0.200,25547.000,0.300,2547.000,0.500,676.000,1.000,400.000,5.000,0
"07/04/06","17:07:38","AMMA06",58404.000,"cc",28322.662,6.00,2832.266,1,6,0.100,29165.000,0.200,25669.000,0.300,2555.000,0.500,605.000,1.000,410.000,5.000,0
"07/04/06","17:07:44","AMMA06",59808.000,"cc",28342.674,6.00,2834.268,1,6,0.100,29496.000,0.200,26073.000,0.300,2907.000,0.500,849.000,1.000,482.000,5.000,1.000
"07/04/06","17:07:50","AMMA06",60024.000,"cc",28293.135,6.00,2829.314,1,6,0.100,29862.000,0.200,25920.000,0.300,2968.000,0.500,823.000,1.000,451.000,5.000,0
"07/04/06","17:07:56","AMMA06",65130.000,"cc",28316.627,6.00,2831.663,1,6,0.100,33794.000,0.200,26970.000,0.300,2944.000,0.500,943.000,1.000,479.000,5.000,0
"07/04/06","17:08:02","AMMA06",63650.000,"cc",28301.717,6.00,2830.172,1,6,0.100,32365.000,0.200,26571.000,0.300,3160.000,0.500,1027.000,1.000,527.000,5.000,0
"07/04/06","17:08:08","AMMA06",76213.000,"cc",28349.469,6.00,2834.947,1,6,0.100,42605.000,0.200,28456.000,0.300,3482.000,0.500,1085.000,1.000,585.000,5.000,0
"07/04/06","17:08:14","AMMA06",74385.000,"cc",28328.721,6.00,2832.872,1,6,0.100,41466.000,0.200,28358.000,0.300,3119.000,0.500,929.000,1.000,513.000,5.000,0
"07/04/06","17:08:20","AMMA06",67885.000,"cc",28275.867,6.00,2827.587,1,6,0.100,36601.000,0.200,27063.000,0.300,2914.000,0.500,852.000,1.000,455.000,5.000,0
"07/04/06","17:08:26","AMMA06",68942.000,"cc",28275.301,6.00,2827.530,1,6,0.100,37784.000,0.200,27047.000,0.300,2899.000,0.500,781.000,1.000,431.000,5.000,0
"07/04/06","17:08:32","AMMA06",72951.000,"cc",28267.566,6.00,2826.757,1,6,0.100,40826.000,0.200,27932.000,0.300,2920.000,0.500,838.000,1.000,435.000,5.000,0
"07/04/06","17:08:38","AMMA06",63961.000,"cc",28348.981,6.00,2834.898,1,6,0.100,33776.000,0.200,26391.000,0.300,2643.000,0.500,742.000,1.000,409.000,5.000,0
"07/04/06","17:08:44","AMMA06",62345.000,"cc",28353.551,6.00,2835.355,1,6,0.100,32367.000,0.200,26330.000,0.300,2585.000,0.500,662.000,1.000,401.000,5.000,0
"07/04/06","17:08:50","AMMA06",59246.000,"cc",28303.295,6.00,2830.330,1,6,0.100,29888.000,0.200,25738.000,0.300,2567.000,0.500,648.000,1.000,405.000,5.000,0
"07/04/06","17:08:56","AMMA06",74322.000,"cc",28386.400,6.00,2838.640,1,6,0.100,41444.000,0.200,28458.000,0.300,3062.000,0.500,879.000,1.000,479.000,5.000,0
"07/04/06","17:09:02","AMMA06",73539.000,"cc",28315.436,6.00,2831.544,1,6,0.100,40875.000,0.200,28249.000,0.300,3102.000,0.500,861.000,1.000,452.000,5.000,0
"07/04/06","17:09:08","AMMA06",79479.000,"cc",28287.510,6.00,2828.751,1,6,0.100,45838.000,0.200,29108.000,0.300,3193.000,0.500,862.000,1.000,478.000,5.000,0
"07/04/06","17:09:14","AMMA06",69034.000,"cc",28278.109,6.00,2827.811,1,6,0.100,37798.000,0.200,27180.000,0.300,2875.000,0.500,754.000,1.000,427.000,5.000,0
"07/04/06","17:09:20","AMMA06",64885.000,"cc",28309.629,6.00,2830.963,1,6,0.100,32822.000,0.200,26919.000,0.300,3433.000,0.500,1167.000,1.000,544.000,5.000,0
"07/04/06","17:09:26","AMMA06",67303.000,"cc",28346.356,6.00,2834.636,1,6,0.100,36441.000,0.200,26911.000,0.300,2754.000,0.500,759.000,1.000,438.000,5.000,0
"07/04/06","17:09:32","AMMA06",65612.000,"cc",28328.129,6.00,2832.813,1,6,0.100,34791.000,0.200,26906.000,0.300,2775.000,0.500,727.000,1.000,413.000,5.000,0
"07/04/06","17:09:38","AMMA06",68254.000,"cc",28312.617,6.00,2831.262,1,6,0.100,36222.000,0.200,27525.000,0.300,3067.000,0.500,939.000,1.000,500.000,5.000,1.000
"07/04/06","17:09:44","AMMA06",78719.000,"cc",28292.350,6.00,2829.235,1,6,0.100,45179.000,0.200,29110.000,0.300,3091.000,0.500,871.000,1.000,468.000,5.000,0
"07/04/06","17:09:50","AMMA06",74503.000,"cc",28340.795,6.00,2834.080,1,6,0.100,41664.000,0.200,28361.000,0.300,3109.000,0.500,878.000,1.000,491.000,5.000,0
"07/04/06","17:09:56","AMMA06",77872.000,"cc",28331.420,6.00,2833.142,1,6,0.100,44297.000,0.200,29258.000,0.300,3042.000,0.500,789.000,1.000,486.000,5.000,0
"07/04/06","17:10:02","AMMA06",79043.000,"cc",28314.981,6.00,2831.498,1,6,0.100,44961.000,0.200,29608.000,0.300,3179.000,0.500,812.000,1.000,483.000,5.000,0
"07/04/06","17:10:08","AMMA06",70422.000,"cc",28336.650,6.00,2833.665,1,6,0.100,38364.000,0.200,27899.000,0.300,2951.000,0.500,746.000,1.000,462.000,5.000,0
"07/04/06","17:10:14","AMMA06",72791.000,"cc",28277.479,6.00,2827.748,1,6,0.100,40278.000,0.200,28212.000,0.300,3014.000,0.500,843.000,1.000,444.000,5.000,0
"07/04/06","17:10:20","AMMA06",67083.000,"cc",28303.076,6.00,2830.308,1,6,0.100,35613.000,0.200,27376.000,0.300,2879.000,0.500,803.000,1.000,412.000,5.000,0
"07/04/06","17:10:26","AMMA06",76394.000,"cc",28322.469,6.00,2832.247,1,6,0.100,42972.000,0.200,29300.000,0.300,2895.000,0.500,786.000,1.000,441.000,5.000,0
"07/04/06","17:10:32","AMMA06",80180.000,"cc",28349.752,6.00,2834.975,1,6,0.100,46014.000,0.200,29747.000,0.300,3196.000,0.500,788.000,1.000,435.000,5.000,0
"07/04/06","17:10:38","AMMA06",72822.000,"cc",28351.930,6.00,2835.193,1,6,0.100,40359.000,0.200,28288.000,0.300,2909.000,0.500,784.000,1.000,482.000,5.000,0
"07/04/06","17:10:44","AMMA06",79884.000,"cc",28324.516,6.00,2832.452,1,6,0.100,45846.000,0.200,29742.000,0.300,3062.000,0.500,762.000,1.000,472.000,5.000,0
"07/04/06","17:10:50","AMMA06",78101.000,"cc",28294.117,6.00,2829.412,1,6,0.100,44409.000,0.200,29379.000,0.300,3039.000,0.500,817.000,1.000,457.000,5.000,0
"07/04/06","17:10:56","AMMA06",70019.000,"cc",28266.324,6.00,2826.633,1,6,0.100,37298.000,0.200,28405.000,0.300,3086.000,0.500,818.000,1.000,412.000,5.000,0
"07/04/06","17:11:02","AMMA06",63914.000,"cc",28311.754,6.00,2831.176,1,6,0.100,32957.000,0.200,27060.000,0.300,2810.000,0.500,663.000,1.000,424.000,5.000,0
"07/04/06","17:11:08","AMMA06",58978.000,"cc",28289.121,6.00,2828.912,1,6,0.100,28953.000,0.200,26289.000,0.300,2733.000,0.500,603.000,1.000,400.000,5.000,0
"07/04/06","17:11:14","AMMA06",63316.000,"cc",28263.047,6.00,2826.305,1,6,0.100,30940.000,0.200,27316.000,0.300,3479.000,0.500,1060.000,1.000,521.000,5.000,0
"07/04/06","17:11:20","AMMA06",62805.000,"cc",28328.834,6.00,2832.884,1,6,0.100,31486.000,0.200,27366.000,0.300,2846.000,0.500,703.000,1.000,404.000,5.000,0
"07/04/06","17:11:26","AMMA06",67516.000,"cc",28383.793,6.00,2838.379,1,6,0.100,35137.000,0.200,27997.000,0.300,3029.000,0.500,856.000,1.000,497.000,5.000,0
"07/04/06","17:11:32","AMMA06",76226.000,"cc",28316.422,6.00,2831.642,1,6,0.100,42076.000,0.200,29422.000,0.300,3282.000,0.500,938.000,1.000,508.000,5.000,0
"07/04/06","17:11:38","AMMA06",64484.000,"cc",28346.160,6.00,2834.616,1,6,0.100,33171.000,0.200,27406.000,0.300,2785.000,0.500,691.000,1.000,431.000,5.000,0
"07/04/06","17:11:44","AMMA06",62907.000,"cc",28307.471,6.00,2830.747,1,6,0.100,31828.000,0.200,26958.000,0.300,2965.000,0.500,723.000,1.000,433.000,5.000,0
"07/04/06","17:11:50","AMMA06",57989.000,"cc",28294.664,6.00,2829.467,1,6,0.100,28061.000,0.200,26332.000,0.300,2660.000,0.500,587.000,1.000,349.000,5.000,0
"07/04/06","17:11:56","AMMA06",57833.000,"cc",28277.895,6.00,2827.790,1,6,0.100,27954.000,0.200,26194.000,0.300,2686.000,0.500,641.000,1.000,358.000,5.000,0
"07/04/06","17:12:02","AMMA06",56644.000,"cc",28321.947,6.00,2832.195,1,6,0.100,27069.000,0.200,26058.000,0.300,2599.000,0.500,603.000,1.000,315.000,5.000,0
"07/04/06","17:12:08","AMMA06",57247.000,"cc",28339.916,6.00,2833.992,1,6,0.100,27558.000,0.200,26171.000,0.300,2556.000,0.500,597.000,1.000,365.000,5.000,0
"07/04/06","17:12:14","AMMA06",57892.000,"cc",28333.074,6.00,2833.308,1,6,0.100,27966.000,0.200,26212.000,0.300,2727.000,0.500,619.000,1.000,368.000,5.000,0
"07/04/06","17:12:20","AMMA06",56348.000,"cc",28316.240,6.00,2831.624,1,6,0.100,26815.000,0.200,25844.000,0.300,2689.000,0.500,599.000,1.000,401.000,5.000,0
"07/04/06","17:12:26","AMMA06",57068.000,"cc",28296.850,6.00,2829.685,1,6,0.100,26983.000,0.200,26294.000,0.300,2729.000,0.500,667.000,1.000,394.000,5.000,1.000
"07/04/06","17:12:32","AMMA06",56913.000,"cc",28313.473,6.00,2831.347,1,6,0.100,26785.000,0.200,26260.000,0.300,2762.000,0.500,719.000,1.000,387.000,5.000,0
"07/04/06","17:12:38","AMMA06",58035.000,"cc",28356.963,6.00,2835.697,1,6,0.100,27495.000,0.200,26545.000,0.300,2878.000,0.500,697.000,1.000,420.000,5.000,0
"07/04/06","17:12:44","AMMA06",61659.000,"cc",28302.273,6.00,2830.228,1,6,0.100,30377.000,0.200,27090.000,0.300,3048.000,0.500,716.000,1.000,427.000,5.000,1.000
"07/04/06","17:12:50","AMMA06",65900.000,"cc",28314.072,6.00,2831.408,1,6,0.100,33434.000,0.200,27817.000,0.300,3193.000,0.500,937.000,1.000,518.000,5.000,1.000
"07/04/06","17:12:56","AMMA06",63921.000,"cc",28286.781,6.00,2828.678,1,6,0.100,32398.000,0.200,27306.000,0.300,2971.000,0.500,781.000,1.000,465.000,5.000,0
"07/04/06","17:13:02","AMMA06",60728.000,"cc",28391.959,6.00,2839.196,1,6,0.100,29486.000,0.200,26961.000,0.300,3021.000,0.500,827.000,1.000,433.000,5.000,0
"07/04/06","17:13:08","AMMA06",62031.000,"cc",28261.609,6.00,2826.161,1,6,0.100,30617.000,0.200,27022.000,0.300,3015.000,0.500,872.000,1.000,505.000,5.000,0
"07/04/06","17:13:14","AMMA06",60009.000,"cc",28326.022,6.00,2832.602,1,6,0.100,28795.000,0.200,26987.000,0.300,3002.000,0.500,781.000,1.000,444.000,5.000,0
"07/04/06","17:13:20","AMMA06",58098.000,"cc",28301.738,6.00,2830.174,1,6,0.100,27587.000,0.200,26503.000,0.300,2834.000,0.500,730.000,1.000,444.000,5.000,0
"07/04/06","17:13:26","AMMA06",61482.000,"cc",28309.129,6.00,2830.913,1,6,0.100,29011.000,0.200,27314.000,0.300,3544.000,0.500,1039.000,1.000,574.000,5.000,0
"07/04/06","17:13:32","AMMA06",62311.000,"cc",28320.996,6.00,2832.100,1,6,0.100,30631.000,0.200,27319.000,0.300,3104.000,0.500,809.000,1.000,448.000,5.000,0
"07/04/06","17:13:38","AMMA06",59040.000,"cc",28354.393,6.00,2835.440,1,6,0.100,28456.000,0.200,26554.000,0.300,2847.000,0.500,739.000,1.000,444.000,5.000,0
"07/04/06","17:13:44","AMMA06",58017.000,"cc",28302.488,6.00,2830.249,1,6,0.100,27976.000,0.200,26290.000,0.300,2711.000,0.500,638.000,1.000,402.000,5.000,0
"07/04/06","17:13:50","AMMA06",56800.000,"cc",28321.777,6.00,2832.178,1,6,0.100,26517.000,0.200,26542.000,0.300,2742.000,0.500,621.000,1.000,378.000,5.000,0
"07/04/06","17:13:56","AMMA06",55230.000,"cc",28325.680,6.00,2832.568,1,6,0.100,25633.000,0.200,26102.000,0.300,2603.000,0.500,560.000,1.000,332.000,5.000,0
"07/04/06","17:14:02","AMMA06",56686.000,"cc",28330.016,6.00,2833.002,1,6,0.100,26308.000,0.200,26354.000,0.300,2898.000,0.500,662.000,1.000,464.000,5.000,0
"07/04/06","17:14:08","AMMA06",55955.000,"cc",28311.846,6.00,2831.185,1,6,0.100,26052.000,0.200,26360.000,0.300,2612.000,0.500,571.000,1.000,360.000,5.000,0
"07/04/06","17:14:14","AMMA06",56350.000,"cc",28311.363,6.00,2831.137,1,6,0.100,26082.000,0.200,26233.000,0.300,2885.000,0.500,730.000,1.000,420.000,5.000,0